Retour au catalogue

TITAN 3C TRANSTAGE DEB

ActifLEO
NORAD 3978·DEBRIS·🇺🇸 United States

Lancé Oct 15, 1965 depuis Cape Canaveral Space Force Station

Loading…

Prochains Passages (prochaines 24 heures)

TLE

FraisSource: Space-Track

Époque: Sep 14, 2026, 16:13 UTC

1 03978U 65082SE  26257.67620436  .00000593  00000-0  90312-4 0  9990
2 03978  32.5634  97.8175 0033460  53.7724 306.6017 14.70556712460093

Suivez TITAN 3C TRANSTAGE DEB en temps réel avec AllMySat

Download on the App Store